Orbital Elements at Epoch 2459200.5 (2020-Dec-17.0) TDB
Reference: JPL 18 (heliocentric ecliptic J2000)
Element | Value | Uncertainty (1-sigma) | Units |
e | .2541330282250539 | 4.65e-08 | |
a | 2.44857946604743 | 7.7495e-09 | au |
q | 1.826314551491111 | 1.1466e-07 | au |
i | 12.25184561162186 | 4.764e-06 | deg |
node | 201.6150471596357 | 1.5971e-05 | deg |
peri | 149.7085136519024 | 1.8153e-05 | deg |
M | 24.69834329338347 | 5.825e-06 | deg |
tp | 2459104.485891542324 (2020-Sep-11.98589154) | 2.2733e-05 | TDB |
period | 1399.489780920776 3.83 | 6.6438e-06 1.819e-08 | d yr |
n | .2572366050169675 | 1.2212e-09 | deg/d |
Q | 3.070844380603749 | 9.7189e-09 | au |
|
| | Orbit Determination Parameters
Additional Information
|